COSMOS 1275 DEB, 19026

Orbit data source: Space-Track

COSMOS 1275 DEB, 19026 is space debris in LEO originally from a launch on Thu, 04 Jun 1981 UTC launched from the Plesetsk Missile And Space Complex (PKMTR). Debris objects in space refer to the collection of defunct objects orbiting the Earth. Examples of debris include non-operational satellites, rocket bodies, and fragments generated from explosions, collisions, or faulty payload assembly.

Loading next visibility...
Identifier
19026, 1981-053MD
Orbit
LEO
Country
Flag of CISCIS
Related business
Manufacturer
Unknown
Mission
Spacecraft
Bus & Motor
Unknown
Mass
Unknown
Launch date (UTC)
1981-06-04 (45 years ago)
Launch vehicle
Unknown
Launch site
Plesetsk Missile And Space Complex (PKMTR)
Object type
Payload
Rocket body
Debris
Shape & HBR
Unknown shape, 0.1 m
Radar Cross Section
Small (<0.1 m²)

Expand to show TLE details & history
Last TLE update: 16 hours ago

TLE from 16 hours ago
0 COSMOS 1275 DEB
1 19026U 81053MD  26121.13955975  .00001417  00000-0  13112-2 0  9994
2 19026  83.1688 174.9873 0111636 227.6495 161.0479 13.79051705 45023
Epoch: 2026-05-01T03:20Z
TLE epoch observation values (Epoch: 2026-05-01T03:20:57.962Z)
Latitude
28.92554°
Longitude
-90.55409°
Altitude
1,048.507 km
Speed
7.291 km/s
True Right ascension
11h 55m 03s
True Declination
28° 47' 09"
Sunlit
Object was in full shadow at epoch
Visualization orbit readout
Latitude
Unknown
Longitude
Unknown
Altitude
Unknown
Speed
Unknown
Apparent Right ascension
Unknown
Apparent Declination
Unknown
Sunlit
N/A
Visualization observer readout
Local Sidereal Time
02:57:05
Azimuth
Unknown
Elevation
Unknown
Doppler factor
Unknown
Orbital elements
Apogee altitude
1,046.355 km
Perigee altitude
882.417 km
Semi-major axis
7,342.523 km
Eccentricity
0.01116
Inclination
83.1688°
RAAN
174.9873°
Arg. of periapsis
227.6495°
True anomaly
161.45795°
Mean anomaly
161.0479°
Eccentric anomaly
161.25346°
Mean motion
3.44965 °/min
Orbital period
104.36 mins
BSTAR
0.0013112
Loading maneuver chart data...
Computing Atmospheric mass density...
Loading historical data...
Loading historical data...
Loading historical data...
Loading historical data...
Loading historical data...
Loading historical data...
Loading historical data...

Documentation

Showing up to 5 results
|